Location: Poughquag
(41.6090°N, 73.6820°W)
Time: 05:57:47
(UTC-04:00)

ITUPSAT 1 - Pass Details

Date: 21 June 2024
Orbit: 695 x 705 km, 98.5° (Epoch: 24 July)

Event Time Altitude Azimuth Distance (km) Brightness Sun altitude
Rises 21:52:38 0° 32° (NNE) 3,105 ? -12.2°
Reaches altitude 10° 21:55:46 10° 54° (NE) 2,181 ? -12.6°
Maximum altitude 21:58:40 16° 92° (E) 1,805 ? -13.0°
Enters shadow 21:59:47 15° 108° (ESE) 1,863 ? -13.1°
